カタログに戻る

ASTRA 1F

運用中通信GEO
NORAD 23842·PAYLOAD·🇱🇺 Luxembourg

打ち上げ Apr 8, 1996 から Baikonur Cosmodrome

Loading…

TLE

最新Source: Space-Track

元期: Sep 14, 2026, 12:30 UTC

1 23842U 96021A   26257.52148868 -.00000021  00000-0  00000-0 0  9995
2 23842   5.6470  72.7506 0005199 131.3380  66.0715  0.99117507 52981

AllMySatでASTRA 1Fをリアルタイム追跡

Download on the App Store